ASTRA 2F

Last updated on Aug. 12, 2020, 5:32 a.m. UTC

1 38778U 12051A   20224.83364545  .00000152  00000-0  00000-0 0  9998
2 38778   0.1055 253.4228 0003519 303.4611  92.1724  1.00279685 19753
UTC
Height (km)
Latitude
Longitude
Inclination
Orbital Period
UTC large
Height (km)
Speed (km/s)
/
Latitude / Longitude
Inclination (degrees)
Orbital Period (minutes)
Azimuth
Elevation
Range (km)
Doppler Factor
iOS Compass Heading
iOS Angle

Next 30 passes for location: Hong Kong

Rise time Rise Azimuth (degrees) Set time Set Azimuth (degrees) Duration Max altitude (degrees)

No matching passes for this satellites